Location: Ferchesar
(52.6477°N, 12.4298°E)
Time: 19:14:46
(UTC+02:00)

Tiros 1 despin weight - Pass Details

Date: 05 March 2021
Orbit: 593 x 641 km, 48.2° (Epoch: 17 April)

Event Time Altitude Azimuth Distance (km) Brightness Sun altitude
Exits shadow 03:38:07 14° 135° (SE) 1,762 ? -28.6°
Drops below altitude 10° 03:38:53 10° 131° (SE) 2,027 ? -28.5°
Sets 03:41:20 0° 123° (ESE) 2,937 ? -28.2°
